• In Uzbekistan
  • List of Countries
  • For 7 days
  • Water Temperature
  • Satellite Maps
  • Weather Map
  • Weather Widgets
  • user-avatar
    Login

    Hourly Weather Mochudi

    Today, 19 November, Sunday

    Time Temperature Precipitation Wind Pressure Humidity
    00:00 +25°C° 0 mm 1 mps 680 mmHg 23%
    01:00 +24°C° 0 mm 1 mps 680 mmHg 25%
    02:00 +24°C° 0 mm 1 mps 680 mmHg 28%
    03:00 +23°C° 0 mm 1 mps 680 mmHg 30%
    04:00 +23°C° 0 mm 1 mps 680 mmHg 32%
    05:00 +22°C° 0 mm 1 mps 680 mmHg 35%
    06:00 +24°C° 0 mm 2 mps 681 mmHg 34%
    07:00 +26°C° 0 mm 4 mps 681 mmHg 33%
    08:00 +27°C° 0 mm 5 mps 682 mmHg 33%
    09:00 +29°C° 0 mm 5 mps 682 mmHg 28%
    10:00 +32°C° 0 mm 5 mps 682 mmHg 24%
    11:00 +35°C° 0 mm 5 mps 683 mmHg 19%
    12:00 +35°C° 0 mm 5 mps 682 mmHg 18%
    13:00 +36°C° 0 mm 4 mps 682 mmHg 16%
    14:00 +37°C° 0 mm 4 mps 681 mmHg 15%
    15:00 +36°C° 0 mm 4 mps 681 mmHg 16%
    16:00 +36°C° 0 mm 5 mps 680 mmHg 18%
    17:00 +35°C° 0 mm 5 mps 680 mmHg 20%
    18:00 +34°C° 0 mm 4 mps 680 mmHg 23%
    19:00 +32°C° 0 mm 4 mps 680 mmHg 26%
    20:00 +30°C° 0 mm 3 mps 680 mmHg 30%
    21:00 +30°C° 0 mm 3 mps 680 mmHg 31%
    22:00 +29°C° 0 mm 3 mps 681 mmHg 33%
    23:00 +28°C° 0 mm 4 mps 681 mmHg 34%

    Tomorrow, 20 November, Monday

    Time Temperature Precipitation Wind Pressure Humidity
    00:00 +28°C° 0 mm 4 mps 681 mmHg 35%
    01:00 +27°C° 0 mm 4 mps 681 mmHg 35%
    02:00 +26°C° 0 mm 4 mps 680 mmHg 35%
    03:00 +26°C° 0 mm 4 mps 680 mmHg 36%
    04:00 +25°C° 0 mm 4 mps 680 mmHg 36%
    05:00 +25°C° 0 mm 4 mps 680 mmHg 36%
    06:00 +26°C° 0 mm 5 mps 681 mmHg 34%
    07:00 +28°C° 0 mm 6 mps 682 mmHg 32%
    08:00 +29°C° 0 mm 7 mps 682 mmHg 30%
    09:00 +32°C° 0 mm 7 mps 682 mmHg 27%
    10:00 +34°C° 0 mm 6 mps 683 mmHg 23%
    11:00 +36°C° 0 mm 6 mps 683 mmHg 20%
    12:00 +37°C° 0 mm 5 mps 682 mmHg 18%
    13:00 +39°C° 0 mm 5 mps 681 mmHg 16%
    14:00 +40°C° 0 mm 4 mps 681 mmHg 13%
    15:00 +38°C° 0 mm 4 mps 680 mmHg 14%
    16:00 +38°C° 0 mm 4 mps 680 mmHg 14%
    17:00 +37°C° 0 mm 4 mps 679 mmHg 15%
    18:00 +36°C° 0 mm 3 mps 679 mmHg 16%
    19:00 +34°C° 0 mm 3 mps 679 mmHg 18%
    20:00 +33°C° 0 mm 3 mps 680 mmHg 19%
    21:00 +31°C° 0 mm 3 mps 680 mmHg 20%
    22:00 +30°C° 0 mm 4 mps 680 mmHg 20%
    23:00 +29°C° 0 mm 5 mps 680 mmHg 20%

    Day after tomorrow, 21 November, Tuesday

    Time Temperature Precipitation Wind Pressure Humidity
    00:00 +29°C° 0 mm 4 mps 680 mmHg 20%
    01:00 +28°C° 0 mm 4 mps 679 mmHg 21%
    02:00 +27°C° 0 mm 3 mps 679 mmHg 21%
    03:00 +26°C° 0 mm 3 mps 679 mmHg 23%
    04:00 +26°C° 0 mm 3 mps 679 mmHg 24%
    05:00 +25°C° 0 mm 4 mps 679 mmHg 26%
    06:00 +27°C° 0 mm 4 mps 679 mmHg 24%
    07:00 +28°C° 0 mm 5 mps 680 mmHg 23%
    08:00 +30°C° 0 mm 5 mps 681 mmHg 21%
    09:00 +33°C° 0 mm 5 mps 681 mmHg 18%
    10:00 +35°C° 0 mm 5 mps 681 mmHg 16%
    11:00 +38°C° 0 mm 4 mps 681 mmHg 13%
    12:00 +38°C° 0 mm 4 mps 680 mmHg 13%
    13:00 +38°C° 0 mm 4 mps 679 mmHg 13%
    14:00 +39°C° 0 mm 3 mps 679 mmHg 12%
    15:00 +38°C° 0 mm 4 mps 678 mmHg 13%
    16:00 +38°C° 0 mm 4 mps 678 mmHg 14%
    17:00 +39°C° 0 mm 5 mps 678 mmHg 15%
    18:00 +35°C° 0 mm 5 mps 678 mmHg 22%
    19:00 +32°C° 0 mm 5 mps 678 mmHg 29%
    20:00 +28°C° 0 mm 6 mps 678 mmHg 36%
    21:00 +28°C° 0.2 mm 5 mps 678 mmHg 38%
    22:00 +27°C° 0.2 mm 3 mps 678 mmHg 40%
    23:00 +26°C° 0.2 mm 2 mps 678 mmHg 42%

    22 November, Wednesday

    Time Temperature Precipitation Wind Pressure Humidity
    00:00 +26°C° 0.1 mm 2 mps 678 mmHg 43%
    01:00 +26°C° 0.1 mm 2 mps 677 mmHg 44%
    02:00 +25°C° 0.1 mm 1 mps 677 mmHg 46%
    03:00 +25°C° 0 mm 1 mps 677 mmHg 47%
    04:00 +24°C° 0 mm 1 mps 677 mmHg 49%
    05:00 +21°C° 0 mm 0 mps 677 mmHg 51%
    06:00 +23°C° 0 mm 0 mps 678 mmHg 45%
    07:00 +27°C° 0 mm 1 mps 679 mmHg 39%
    08:00 +29°C° 0 mm 1 mps 679 mmHg 33%
    09:00 +32°C° 0 mm 1 mps 680 mmHg 28%
    10:00 +34°C° 0 mm 1 mps 680 mmHg 24%
    11:00 +36°C° 0 mm 1 mps 680 mmHg 19%
    12:00 +38°C° 0 mm 2 mps 679 mmHg 17%
    13:00 +38°C° 0 mm 2 mps 678 mmHg 16%
    14:00 +39°C° 0 mm 3 mps 678 mmHg 15%
    15:00 +38°C° 0 mm 3 mps 677 mmHg 15%
    16:00 +38°C° 0 mm 3 mps 677 mmHg 15%
    17:00 +38°C° 0 mm 3 mps 677 mmHg 15%
    18:00 +36°C° 0 mm 3 mps 677 mmHg 16%
    19:00 +35°C° 0 mm 3 mps 678 mmHg 17%
    20:00 +33°C° 0 mm 3 mps 678 mmHg 18%
    21:00 +31°C° 0 mm 3 mps 678 mmHg 18%
    22:00 +31°C° 0 mm 3 mps 678 mmHg 17%
    23:00 +30°C° 0 mm 4 mps 678 mmHg 17%

    23 November, Thursday

    Time Temperature Precipitation Wind Pressure Humidity
    00:00 +29°C° 0 mm 3 mps 678 mmHg 15%
    01:00 +28°C° 0 mm 3 mps 678 mmHg 14%
    02:00 +27°C° 0 mm 3 mps 678 mmHg 13%
    03:00 +26°C° 0 mm 2 mps 678 mmHg 14%
    04:00 +25°C° 0 mm 2 mps 678 mmHg 14%
    05:00 +24°C° 0 mm 2 mps 678 mmHg 15%
    06:00 +26°C° 0 mm 3 mps 679 mmHg 18%
    07:00 +28°C° 0 mm 5 mps 680 mmHg 21%
    08:00 +30°C° 0 mm 6 mps 680 mmHg 24%
    09:00 +33°C° 0 mm 7 mps 680 mmHg 24%
    10:00 +34°C° 0 mm 7 mps 680 mmHg 23%
    11:00 +36°C° 0 mm 7 mps 680 mmHg 23%
    12:00 +36°C° 0 mm 7 mps 680 mmHg 23%
    13:00 +36°C° 0 mm 6 mps 679 mmHg 22%
    14:00 +36°C° 0 mm 5 mps 678 mmHg 22%
    15:00 +35°C° 0.9 mm 5 mps 678 mmHg 27%
    16:00 +33°C° 0.9 mm 5 mps 678 mmHg 32%
    17:00 +32°C° 0.9 mm 5 mps 677 mmHg 37%
    18:00 +30°C° 0.5 mm 5 mps 678 mmHg 43%
    19:00 +28°C° 0.5 mm 5 mps 678 mmHg 49%
    20:00 +27°C° 0.5 mm 5 mps 678 mmHg 55%
    21:00 +26°C° 0.4 mm 5 mps 679 mmHg 58%
    22:00 +24°C° 0.4 mm 6 mps 679 mmHg 60%
    23:00 +24°C° 0.4 mm 6 mps 679 mmHg 63%

    24 November, Friday

    Time Temperature Precipitation Wind Pressure Humidity
    00:00 +23°C° 0.4 mm 6 mps 679 mmHg 64%
    01:00 +22°C° 0.4 mm 6 mps 679 mmHg 66%
    02:00 +22°C° 0.4 mm 6 mps 679 mmHg 67%
    03:00 +21°C° 0.1 mm 6 mps 679 mmHg 69%
    04:00 +21°C° 0.1 mm 5 mps 679 mmHg 71%
    05:00 +20°C° 0.1 mm 5 mps 679 mmHg 73%
    06:00 +21°C° 0 mm 5 mps 680 mmHg 69%
    07:00 +22°C° 0 mm 5 mps 681 mmHg 65%
    08:00 +23°C° 0 mm 5 mps 681 mmHg 61%
    09:00 +26°C° 0 mm 5 mps 681 mmHg 55%
    10:00 +27°C° 0 mm 5 mps 682 mmHg 49%
    11:00 +29°C° 0 mm 4 mps 682 mmHg 44%
    12:00 +30°C° 0 mm 4 mps 681 mmHg 40%
    13:00 +32°C° 0 mm 4 mps 680 mmHg 36%
    14:00 +33°C° 0 mm 3 mps 680 mmHg 33%
    15:00 +33°C° 0 mm 3 mps 679 mmHg 32%
    16:00 +33°C° 0 mm 3 mps 679 mmHg 32%
    17:00 +34°C° 0 mm 3 mps 679 mmHg 31%
    18:00 +30°C° 2.6 mm 4 mps 679 mmHg 41%
    19:00 +28°C° 2.6 mm 5 mps 679 mmHg 51%
    20:00 +24°C° 2.6 mm 6 mps 679 mmHg 61%
    21:00 +23°C° 4.3 mm 5 mps 679 mmHg 66%
    22:00 +22°C° 4.3 mm 4 mps 679 mmHg 71%
    23:00 +21°C° 4.3 mm 4 mps 679 mmHg 76%
    Show more